Simultaneous Nadir Overpasses (SNOs) Predictions

Prediction of SNOs between METOP-C and LANDSAT-8 Satellite Orbit:

Table of predicted SNOs for the next 14.0 days since TLE Epoch: 9/5/2020
Index Date (METOP-C) Time (METOP-C) Lat,Lon (METOP-C) SZA (METOP-C ) Date (LANDSAT-8) Time (LANDSAT-8) Lat,Lon (LANDSAT-8) SZA (LANDSAT-8 ) Distance(km) Time Diff (sec)
1 09/05/2020 04:13:20 -81.16, -22.75 103.33 09/05/2020 04:13:48 -81.16, -22.89 103.33 2.48 28
2 09/05/2020 05:04:00 81.17, 144.96 76.74 09/05/2020 05:03:14 81.16, 144.81 76.70 2.69 46
3 09/07/2020 23:47:42 -81.14, 43.24 102.31 09/07/2020 23:48:05 -81.14, 43.35 102.29 1.94 23
4 09/08/2020 00:38:21 81.16,-148.74 77.80 09/08/2020 00:37:30 81.17,-148.60 77.79 2.45 51
5 09/10/2020 19:22:02 -81.15, 109.97 101.18 09/10/2020 19:22:21 -81.15, 109.94 101.18 0.43 19
6 09/10/2020 20:12:41 81.17, -82.08 78.91 09/10/2020 20:11:46 81.18, -82.03 78.90 0.89 55
7 09/13/2020 14:56:21 -81.16, 176.68 100.05 09/13/2020 14:56:36 -81.16, 176.51 100.06 2.91 15
8 09/13/2020 15:47:00 81.18, -15.43 80.04 09/13/2020 15:46:01 81.18, -15.49 80.01 1.08 59
9 09/16/2020 10:30:43 -81.15,-117.37 99.01 09/16/2020 10:30:53 -81.14,-117.31 99.00 1.14 10
